COSMOS 1275 DEB, 12715

Orbit data source: Space-Track

COSMOS 1275 DEB, 12715 is space debris in LEO originally from a launch on Thu, 04 Jun 1981 UTC launched from the Plesetsk Missile And Space Complex (PKMTR). Debris objects in space refer to the collection of defunct objects orbiting the Earth. Examples of debris include non-operational satellites, rocket bodies, and fragments generated from explosions, collisions, or faulty payload assembly.

Loading next visibility...
Identifier
12715, 1981-053BK
Orbit
LEO
Country
Flag of CISCIS
Related business
Manufacturer
Unknown
Mission
Spacecraft
Bus & Motor
Unknown
Mass
Unknown
Launch date (UTC)
1981-06-04 (45 years ago)
Launch vehicle
Unknown
Launch site
Plesetsk Missile And Space Complex (PKMTR)
Object type
Payload
Rocket body
Debris
Shape & HBR
Unknown shape, 0.2 m
Radar Cross Section
Medium (>0.1 m² and <1 m²)

Expand to show TLE details & history
Last TLE update: 16 hours ago

TLE from 16 hours ago
0 COSMOS 1275 DEB
1 12715U 81053BK  26118.45542259  .00001349  00000-0  46781-3 0  9993
2 12715  83.1043 137.0963 0062542  23.7782  92.6921 14.33886670308336
Epoch: 2026-04-28T10:55Z
TLE epoch observation values (Epoch: 2026-04-28T10:55:48.511Z)
Latitude
62.11087°
Longitude
-76.42452°
Altitude
791.817 km
Speed
7.462 km/s
True Right ascension
20h 15m 49s
True Declination
61° 58' 09"
Sunlit
Object was in daylight at epoch
Visualization orbit readout
Latitude
Unknown
Longitude
Unknown
Altitude
Unknown
Speed
Unknown
Apparent Right ascension
Unknown
Apparent Declination
Unknown
Sunlit
N/A
Visualization observer readout
Local Sidereal Time
10:25:33
Azimuth
Unknown
Elevation
Unknown
Doppler factor
Unknown
Orbital elements
Apogee altitude
820.572 km
Perigee altitude
731.088 km
Semi-major axis
7,153.967 km
Eccentricity
0.00625
Inclination
83.1043°
RAAN
137.0963°
Arg. of periapsis
23.7782°
True anomaly
93.40771°
Mean anomaly
92.6921°
Eccentric anomaly
93.04993°
Mean motion
3.58693 °/min
Orbital period
100.36 mins
BSTAR
0.00046781
Loading maneuver chart data...
Computing Atmospheric mass density...
Loading historical data...
Loading historical data...
Loading historical data...
Loading historical data...
Loading historical data...
Loading historical data...
Loading historical data...

Documentation

Showing up to 5 results
|